Wetterdaten: Samstag, 09.06.2018
Datum Zeit Temp. Aussen Temp. o. S. +5cm Feuchte Auss Luftdruck Regen Sonnenschein Regendauer Solar Windben Empfang
09.06.2018 13:50 25,4 C 26,7 C 23,3 C 72 % 1010,7 hPa 0,0 l/m 0 min 0 min 215 W/m 9,0 km/h (2 Bft) 100,00 %
09.06.2018 13:55 25,2 C 26,7 C 23,3 C 73 % 1010,6 hPa 0,0 l/m 0 min 0 min 213 W/m 9,0 km/h (2 Bft) 100,00 %
09.06.2018 14:00 25,5 C 27,2 C 23,9 C 72 % 1010,5 hPa 0,0 l/m 0 min 0 min 206 W/m 9,0 km/h (2 Bft) 100,00 %
09.06.2018 14:05 25,8 C 27,2 C 24,4 C 71 % 1010,4 hPa 0,0 l/m 0 min 0 min 202 W/m 6,8 km/h (2 Bft) 100,00 %
09.06.2018 14:10 25,9 C 26,1 C 24,4 C 70 % 1010,4 hPa 0,0 l/m 0 min 0 min 207 W/m 13,5 km/h (3 Bft) 100,00 %
09.06.2018 14:16 25,9 C 27,2 C 24,4 C 71 % 1010,4 hPa 0,0 l/m 0 min 0 min 206 W/m 4,5 km/h (1 Bft) 100,00 %
09.06.2018 14:18 26,1 C 27,2 C 23,9 C 72 % 1010,4 hPa 0,0 l/m 0 min 0 min 206 W/m 11,3 km/h (2 Bft) 97,92 %
09.06.2018 14:20 26,1 C 27,2 C 23,9 C 71 % 1010,4 hPa 0,0 l/m 0 min 0 min 207 W/m 11,3 km/h (2 Bft) 100,00 %
09.06.2018 14:25 25,8 C 27,2 C 23,9 C 72 % 1010,4 hPa 0,0 l/m 0 min 0 min 209 W/m 9,0 km/h (2 Bft) 100,00 %
09.06.2018 14:28 25,9 C 27,2 C 23,9 C 70 % 1010,3 hPa 0,0 l/m 0 min 0 min 210 W/m 0,0 km/h (0 Bft) 98,69 %
09.06.2018 14:30 26,1 C 27,2 C 23,9 C 70 % 1010,3 hPa 0,0 l/m 0 min 0 min 212 W/m 2,3 km/h (1 Bft) 100,00 %
09.06.2018 14:32 26,1 C 27,2 C 23,9 C 70 % 1010,3 hPa 0,0 l/m 0 min 0 min 215 W/m 4,5 km/h (1 Bft) 98,00 %
09.06.2018 14:35 26,3 C 27,2 C 24,4 C 71 % 1010,3 hPa 0,0 l/m 0 min 0 min 222 W/m 6,8 km/h (2 Bft) 100,00 %
09.06.2018 14:40 26,3 C 27,2 C 23,9 C 70 % 1010,3 hPa 0,0 l/m 0 min 0 min 231 W/m 9,0 km/h (2 Bft) 100,00 %
09.06.2018 14:45 26,7 C 27,8 C 24,4 C 74 % 1010,3 hPa 0,0 l/m 0 min 0 min 220 W/m 6,8 km/h (2 Bft) 98,25 %
09.06.2018 14:50 26,8 C 27,8 C 24,4 C 71 % 1010,3 hPa 0,0 l/m 0 min 0 min 237 W/m 9,0 km/h (2 Bft) 96,49 %
09.06.2018 14:55 26,6 C 27,8 C 24,4 C 68 % 1010,3 hPa 0,0 l/m 0 min 0 min 328 W/m 6,8 km/h (2 Bft) 98,25 %
09.06.2018 15:00 26,8 C 27,8 C 24,4 C 71 % 1010,3 hPa 0,0 l/m 5 min 0 min 431 W/m 6,8 km/h (2 Bft) 95,61 %
09.06.2018 15:05 26,6 C 27,8 C 24,4 C 71 % 1010,2 hPa 0,0 l/m 5 min 0 min 606 W/m 11,3 km/h (2 Bft) 97,37 %
09.06.2018 15:10 26,6 C 27,2 C 23,9 C 70 % 1010,2 hPa 0,0 l/m 5 min 0 min 809 W/m 6,8 km/h (2 Bft) 98,25 %
09.06.2018 15:15 26,6 C 27,8 C 24,4 C 71 % 1010,1 hPa 0,0 l/m 5 min 0 min 809 W/m 6,8 km/h (2 Bft) 98,25 %
09.06.2018 15:20 26,7 C 27,8 C 24,4 C 71 % 1010,1 hPa 0,0 l/m 5 min 0 min 799 W/m 6,8 km/h (2 Bft) 98,25 %
09.06.2018 15:25 26,8 C 27,2 C 25,0 C 69 % 1010,1 hPa 0,0 l/m 5 min 0 min 806 W/m 9,0 km/h (2 Bft) 97,37 %
09.06.2018 15:30 26,9 C 28,3 C 25,0 C 72 % 1010,0 hPa 0,0 l/m 5 min 0 min 791 W/m 6,8 km/h (2 Bft) 100,00 %
09.06.2018 15:35 27,1 C 28,3 C 25,0 C 69 % 1010,0 hPa 0,0 l/m 5 min 0 min 798 W/m 11,3 km/h (2 Bft) 100,00 %
09.06.2018 15:40 27,2 C 28,3 C 25,0 C 68 % 1009,9 hPa 0,0 l/m 5 min 0 min 776 W/m 11,3 km/h (2 Bft) 100,00 %
09.06.2018 15:45 27,2 C 28,9 C 25,0 C 69 % 1009,8 hPa 0,0 l/m 5 min 0 min 760 W/m 9,0 km/h (2 Bft) 100,00 %
09.06.2018 15:50 27,2 C 28,9 C 25,0 C 69 % 1009,8 hPa 0,0 l/m 5 min 0 min 765 W/m 6,8 km/h (2 Bft) 100,00 %
09.06.2018 15:55 26,8 C 30,6 C 25,0 C 68 % 1009,8 hPa 0,0 l/m 5 min 0 min 767 W/m 9,0 km/h (2 Bft) 100,00 %
09.06.2018 16:00 27,1 C 30,6 C 25,0 C 70 % 1009,7 hPa 0,0 l/m 5 min 0 min 751 W/m 6,8 km/h (2 Bft) 100,00 %
09.06.2018 16:05 27,1 C 30,6 C 24,4 C 68 % 1009,7 hPa 0,0 l/m 5 min 0 min 746 W/m 6,8 km/h (2 Bft) 100,00 %
09.06.2018 16:10 27,2 C 30,6 C 25,0 C 67 % 1009,5 hPa 0,0 l/m 5 min 0 min 715 W/m 9,0 km/h (2 Bft) 100,00 %
09.06.2018 16:15 27,1 C 29,4 C 25,0 C 69 % 1009,5 hPa 0,0 l/m 5 min 0 min 719 W/m 9,0 km/h (2 Bft) 100,00 %
09.06.2018 16:20 26,9 C 30,6 C 25,0 C 70 % 1009,5 hPa 0,0 l/m 5 min 0 min 695 W/m 6,8 km/h (2 Bft) 100,00 %
09.06.2018 16:25 26,3 C 27,8 C 24,4 C 70 % 1009,4 hPa 0,0 l/m 0 min 0 min 183 W/m 13,5 km/h (3 Bft) 100,00 %
09.06.2018 16:30 26,6 C 29,4 C 24,4 C 73 % 1009,5 hPa 0,0 l/m 5 min 0 min 610 W/m 9,0 km/h (2 Bft) 100,00 %
09.06.2018 16:35 27,0 C 30,0 C 25,0 C 69 % 1009,5 hPa 0,0 l/m 5 min 0 min 684 W/m 6,8 km/h (2 Bft) 100,00 %
09.06.2018 16:40 27,3 C 30,0 C 25,0 C 71 % 1009,5 hPa 0,0 l/m 5 min 0 min 666 W/m 6,8 km/h (2 Bft) 100,00 %
09.06.2018 16:45 27,3 C 30,6 C 25,0 C 69 % 1009,4 hPa 0,0 l/m 5 min 0 min 682 W/m 6,8 km/h (2 Bft) 100,00 %
09.06.2018 16:50 27,4 C 30,0 C 25,6 C 69 % 1009,4 hPa 0,0 l/m 5 min 0 min 658 W/m 9,0 km/h (2 Bft) 99,12 %
09.06.2018 16:55 27,4 C 30,0 C 25,0 C 69 % 1009,3 hPa 0,0 l/m 5 min 0 min 647 W/m 15,8 km/h (3 Bft) 100,00 %
09.06.2018 17:00 27,4 C 29,4 C 25,6 C 71 % 1009,3 hPa 0,0 l/m 5 min 0 min 632 W/m 4,5 km/h (1 Bft) 100,00 %
09.06.2018 17:05 27,6 C 29,4 C 25,6 C 68 % 1009,3 hPa 0,0 l/m 5 min 0 min 626 W/m 6,8 km/h (2 Bft) 100,00 %
09.06.2018 17:10 27,7 C 29,4 C 25,6 C 67 % 1009,3 hPa 0,0 l/m 5 min 0 min 629 W/m 11,3 km/h (2 Bft) 100,00 %
09.06.2018 17:15 27,5 C 28,9 C 25,6 C 67 % 1009,4 hPa 0,0 l/m 5 min 0 min 600 W/m 9,0 km/h (2 Bft) 99,12 %
09.06.2018 17:20 27,6 C 28,9 C 25,6 C 68 % 1009,4 hPa 0,0 l/m 5 min 0 min 606 W/m 9,0 km/h (2 Bft) 100,00 %
09.06.2018 17:25 27,4 C 29,4 C 25,6 C 69 % 1009,4 hPa 0,0 l/m 5 min 0 min 608 W/m 11,3 km/h (2 Bft) 100,00 %
09.06.2018 17:30 27,5 C 29,4 C 25,6 C 69 % 1009,4 hPa 0,0 l/m 5 min 0 min 590 W/m 11,3 km/h (2 Bft) 100,00 %
09.06.2018 17:35 27,6 C 29,4 C 25,6 C 70 % 1009,4 hPa 0,0 l/m 5 min 0 min 566 W/m 11,3 km/h (2 Bft) 100,00 %
09.06.2018 17:40 27,5 C 29,4 C 25,6 C 71 % 1009,4 hPa 0,0 l/m 5 min 0 min 512 W/m 11,3 km/h (2 Bft) 100,00 %
09.06.2018 17:45 27,0 C 28,3 C 25,0 C 69 % 1009,5 hPa 0,0 l/m 5 min 0 min 427 W/m 15,8 km/h (3 Bft) 100,00 %
09.06.2018 17:50 26,7 C 27,8 C 25,0 C 70 % 1009,4 hPa 0,0 l/m 5 min 0 min 418 W/m 13,5 km/h (3 Bft) 100,00 %
09.06.2018 17:55 26,3 C 27,2 C 24,4 C 71 % 1009,3 hPa 0,0 l/m 0 min 0 min 252 W/m 13,5 km/h (3 Bft) 100,00 %
09.06.2018 18:00 26,3 C 27,2 C 25,0 C 71 % 1009,3 hPa 0,0 l/m 5 min 0 min 419 W/m 15,8 km/h (3 Bft) 100,00 %
09.06.2018 18:05 26,5 C 27,2 C 25,0 C 71 % 1009,2 hPa 0,0 l/m 5 min 0 min 430 W/m 11,3 km/h (2 Bft) 100,00 %
09.06.2018 18:10 26,6 C 27,8 C 25,0 C 71 % 1009,2 hPa 0,0 l/m 5 min 0 min 440 W/m 9,0 km/h (2 Bft) 97,37 %
09.06.2018 18:15 26,7 C 27,8 C 25,0 C 70 % 1009,2 hPa 0,0 l/m 5 min 0 min 411 W/m 6,8 km/h (2 Bft) 100,00 %
09.06.2018 18:20 26,6 C 27,8 C 25,0 C 71 % 1009,2 hPa 0,0 l/m 5 min 0 min 396 W/m 13,5 km/h (3 Bft) 98,25 %
09.06.2018 18:25 26,6 C 27,8 C 25,0 C 72 % 1009,2 hPa 0,0 l/m 5 min 0 min 375 W/m 13,5 km/h (3 Bft) 98,25 %
09.06.2018 18:30 26,6 C 27,8 C 25,0 C 71 % 1009,3 hPa 0,0 l/m 5 min 0 min 372 W/m 9,0 km/h (2 Bft) 99,12 %
09.06.2018 18:35 26,8 C 28,3 C 25,0 C 69 % 1009,2 hPa 0,0 l/m 5 min 0 min 374 W/m 11,3 km/h (2 Bft) 100,00 %
09.06.2018 18:40 26,6 C 27,8 C 25,0 C 68 % 1009,2 hPa 0,0 l/m 5 min 0 min 341 W/m 11,3 km/h (2 Bft) 100,00 %
09.06.2018 18:45 26,5 C 27,8 C 25,0 C 69 % 1009,2 hPa 0,0 l/m 5 min 0 min 334 W/m 9,0 km/h (2 Bft) 100,00 %
09.06.2018 18:50 26,3 C 27,2 C 24,4 C 70 % 1009,3 hPa 0,0 l/m 5 min 0 min 308 W/m 13,5 km/h (3 Bft) 100,00 %
09.06.2018 18:55 26,3 C 27,2 C 24,4 C 71 % 1009,2 hPa 0,0 l/m 5 min 0 min 307 W/m 9,0 km/h (2 Bft) 100,00 %
09.06.2018 19:00 26,3 C 27,8 C 24,4 C 71 % 1009,2 hPa 0,0 l/m 5 min 0 min 292 W/m 9,0 km/h (2 Bft) 100,00 %
09.06.2018 19:05 26,2 C 27,2 C 24,4 C 69 % 1009,3 hPa 0,0 l/m 5 min 0 min 285 W/m 11,3 km/h (2 Bft) 100,00 %
09.06.2018 19:10 26,1 C 27,2 C 24,4 C 72 % 1009,2 hPa 0,0 l/m 5 min 0 min 278 W/m 9,0 km/h (2 Bft) 100,00 %
09.06.2018 19:15 26,2 C 27,2 C 24,4 C 71 % 1009,3 hPa 0,0 l/m 5 min 0 min 252 W/m 9,0 km/h (2 Bft) 98,25 %
09.06.2018 19:22 26,0 C 26,7 C 24,4 C 72 % 1009,4 hPa 0,0 l/m 5 min 0 min 230 W/m 9,0 km/h (2 Bft) 96,88 %
09.06.2018 19:26 25,9 C 26,7 C 24,4 C 72 % 1009,4 hPa 0,0 l/m 4 min 0 min 225 W/m 6,8 km/h (2 Bft) 94,57 %
09.06.2018 19:28 25,9 C 26,7 C 24,4 C 73 % 1009,5 hPa 0,0 l/m 2 min 0 min 209 W/m 11,3 km/h (2 Bft) 100,00 %
09.06.2018 19:30 25,8 C 26,7 C 24,4 C 73 % 1009,5 hPa 0,0 l/m 2 min 0 min 173 W/m 9,0 km/h (2 Bft) 95,74 %
09.06.2018 19:32 25,8 C 26,7 C 24,4 C 73 % 1009,5 hPa 0,0 l/m 0 min 0 min 141 W/m 4,5 km/h (1 Bft) 97,87 %
09.06.2018 19:34 25,8 C 26,1 C 24,4 C 73 % 1009,4 hPa 0,0 l/m 2 min 0 min 161 W/m 4,5 km/h (1 Bft) 97,83 %
09.06.2018 19:36 25,7 C 26,1 C 23,9 C 73 % 1009,4 hPa 0,0 l/m 2 min 0 min 158 W/m 6,8 km/h (2 Bft) 97,87 %
09.06.2018 19:38 25,6 C 26,1 C 23,9 C 73 % 1009,4 hPa 0,0 l/m 2 min 0 min 192 W/m 6,8 km/h (2 Bft) 97,87 %
09.06.2018 19:42 25,6 C 26,1 C 23,9 C 75 % 1009,4 hPa 0,0 l/m 4 min 0 min 188 W/m 6,8 km/h (2 Bft) 97,03 %
09.06.2018 19:44 25,6 C 26,1 C 23,9 C 75 % 1009,4 hPa 0,0 l/m 2 min 0 min 182 W/m 6,8 km/h (2 Bft) 97,87 %
09.06.2018 19:46 25,6 C 26,1 C 23,9 C 74 % 1009,4 hPa 0,0 l/m 2 min 0 min 179 W/m 4,5 km/h (1 Bft) 95,65 %
09.06.2018 19:48 25,6 C 26,1 C 23,9 C 75 % 1009,4 hPa 0,0 l/m 2 min 0 min 165 W/m 6,8 km/h (2 Bft) 97,87 %
09.06.2018 19:50 25,6 C 26,1 C 23,9 C 74 % 1009,4 hPa 0,0 l/m 2 min 0 min 136 W/m 6,8 km/h (2 Bft) 97,87 %
09.06.2018 19:52 25,6 C 26,1 C 23,9 C 74 % 1009,4 hPa 0,0 l/m 0 min 0 min 123 W/m 2,3 km/h (1 Bft) 97,87 %
09.06.2018 19:54 25,6 C 25,6 C 23,9 C 74 % 1009,4 hPa 0,0 l/m 0 min 0 min 116 W/m 6,8 km/h (2 Bft) 97,87 %
09.06.2018 19:56 25,6 C 25,6 C 23,9 C 73 % 1009,4 hPa 0,0 l/m 0 min 0 min 110 W/m 9,0 km/h (2 Bft) 97,83 %
09.06.2018 19:58 25,6 C 25,6 C 23,9 C 72 % 1009,4 hPa 0,0 l/m 0 min 0 min 105 W/m 4,5 km/h (1 Bft) 95,74 %
09.06.2018 20:00 25,6 C 25,6 C 23,9 C 72 % 1009,4 hPa 0,0 l/m 0 min 0 min 105 W/m 9,0 km/h (2 Bft) 97,87 %
09.06.2018 20:02 25,6 C 25,6 C 23,9 C 72 % 1009,4 hPa 0,0 l/m 0 min 0 min 105 W/m 9,0 km/h (2 Bft) 95,74 %
09.06.2018 20:04 25,6 C 25,6 C 23,9 C 72 % 1009,4 hPa 0,0 l/m 0 min 0 min 105 W/m 4,5 km/h (1 Bft) 100,00 %
09.06.2018 20:06 25,6 C 25,6 C 23,9 C 73 % 1009,4 hPa 0,0 l/m 0 min 0 min 104 W/m 4,5 km/h (1 Bft) 97,87 %
09.06.2018 20:08 25,7 C 25,6 C 23,3 C 73 % 1009,5 hPa 0,0 l/m 0 min 0 min 100 W/m 9,0 km/h (2 Bft) 95,65 %
09.06.2018 20:10 25,7 C 25,6 C 23,9 C 73 % 1009,5 hPa 0,0 l/m 0 min 0 min 98 W/m 9,0 km/h (2 Bft) 97,87 %
09.06.2018 20:12 25,7 C 25,6 C 23,3 C 73 % 1009,4 hPa 0,0 l/m 0 min 0 min 96 W/m 6,8 km/h (2 Bft) 97,87 %
09.06.2018 20:14 25,7 C 25,0 C 23,9 C 73 % 1009,4 hPa 0,0 l/m 0 min 0 min 91 W/m 6,8 km/h (2 Bft) 97,87 %
09.06.2018 20:16 25,6 C 25,0 C 23,9 C 73 % 1009,5 hPa 0,0 l/m 0 min 0 min 86 W/m 4,5 km/h (1 Bft) 95,74 %
09.06.2018 20:18 25,6 C 25,0 C 23,9 C 73 % 1009,5 hPa 0,0 l/m 0 min 0 min 82 W/m 6,8 km/h (2 Bft) 97,87 %
09.06.2018 20:20 25,6 C 25,0 C 23,3 C 73 % 1009,4 hPa 0,0 l/m 0 min 0 min 77 W/m 4,5 km/h (1 Bft) 95,65 %
09.06.2018 20:22 25,6 C 25,0 C 23,3 C 73 % 1009,5 hPa 0,0 l/m 0 min 0 min 76 W/m 2,3 km/h (1 Bft) 95,74 %
09.06.2018 20:24 25,6 C 25,0 C 23,3 C 74 % 1009,5 hPa 0,0 l/m 0 min 0 min 72 W/m 4,5 km/h (1 Bft) 95,74 %
09.06.2018 20:26 25,6 C 25,0 C 23,3 C 74 % 1009,5 hPa 0,0 l/m 0 min 0 min 66 W/m 4,5 km/h (1 Bft) 97,87 %
09.06.2018 20:28 25,6 C 25,0 C 23,3 C 74 % 1009,5 hPa 0,0 l/m 0 min 0 min 54 W/m 4,5 km/h (1 Bft) 95,74 %
09.06.2018 20:30 25,6 C 25,0 C 23,3 C 74 % 1009,4 hPa 0,0 l/m 0 min 0 min 53 W/m 6,8 km/h (2 Bft) 97,87 %
09.06.2018 20:32 25,6 C 25,0 C 23,3 C 74 % 1009,4 hPa 0,0 l/m 0 min 0 min 55 W/m 6,8 km/h (2 Bft) 97,83 %
09.06.2018 20:34 25,5 C 24,4 C 23,3 C 74 % 1009,4 hPa 0,0 l/m 0 min 0 min 61 W/m 6,8 km/h (2 Bft) 97,87 %
09.06.2018 20:36 25,5 C 24,4 C 23,3 C 74 % 1009,4 hPa 0,0 l/m 0 min 0 min 64 W/m 6,8 km/h (2 Bft) 97,87 %
09.06.2018 20:38 25,5 C 24,4 C 23,3 C 74 % 1009,4 hPa 0,0 l/m 0 min 0 min 65 W/m 4,5 km/h (1 Bft) 97,87 %
09.06.2018 20:40 25,4 C 24,4 C 23,3 C 74 % 1009,5 hPa 0,0 l/m 2 min 0 min 69 W/m 6,8 km/h (2 Bft) 97,87 %
09.06.2018 20:42 25,4 C 24,4 C 23,3 C 75 % 1009,5 hPa 0,0 l/m 2 min 0 min 69 W/m 4,5 km/h (1 Bft) 97,83 %
09.06.2018 20:44 25,4 C 24,4 C 23,3 C 75 % 1009,5 hPa 0,0 l/m 2 min 0 min 71 W/m 4,5 km/h (1 Bft) 100,00 %
09.06.2018 20:46 25,3 C 24,4 C 23,3 C 75 % 1009,4 hPa 0,0 l/m 2 min 0 min 74 W/m 4,5 km/h (1 Bft) 95,74 %
09.06.2018 20:48 25,3 C 24,4 C 23,3 C 75 % 1009,4 hPa 0,0 l/m 2 min 0 min 77 W/m 4,5 km/h (1 Bft) 95,74 %
09.06.2018 20:50 25,3 C 24,4 C 23,3 C 75 % 1009,4 hPa 0,0 l/m 2 min 0 min 80 W/m 4,5 km/h (1 Bft) 97,87 %
09.06.2018 20:52 25,2 C 24,4 C 23,3 C 75 % 1009,4 hPa 0,0 l/m 2 min 0 min 82 W/m 2,3 km/h (1 Bft) 97,87 %
09.06.2018 20:54 25,2 C 24,4 C 22,8 C 76 % 1009,5 hPa 0,0 l/m 2 min 0 min 83 W/m 4,5 km/h (1 Bft) 97,87 %
09.06.2018 20:56 25,2 C 24,4 C 22,8 C 76 % 1009,5 hPa 0,0 l/m 2 min 0 min 81 W/m 4,5 km/h (1 Bft) 97,83 %
09.06.2018 20:58 25,2 C 24,4 C 22,8 C 76 % 1009,5 hPa 0,0 l/m 2 min 0 min 76 W/m 4,5 km/h (1 Bft) 97,87 %
09.06.2018 21:00 25,1 C 24,4 C 22,8 C 76 % 1009,5 hPa 0,0 l/m 2 min 0 min 72 W/m 2,3 km/h (1 Bft) 97,87 %
09.06.2018 21:02 25,1 C 24,4 C 22,8 C 76 % 1009,5 hPa 0,0 l/m 2 min 0 min 69 W/m 2,3 km/h (1 Bft) 97,87 %
09.06.2018 21:04 25,1 C 24,4 C 22,8 C 76 % 1009,5 hPa 0,0 l/m 2 min 0 min 66 W/m 4,5 km/h (1 Bft) 97,87 %
09.06.2018 21:06 25,1 C 24,4 C 22,8 C 76 % 1009,4 hPa 0,0 l/m 2 min 0 min 63 W/m 4,5 km/h (1 Bft) 100,00 %
09.06.2018 21:08 25,1 C 24,4 C 22,8 C 76 % 1009,5 hPa 0,0 l/m 2 min 0 min 60 W/m 4,5 km/h (1 Bft) 100,00 %
09.06.2018 21:10 25,1 C 24,4 C 22,8 C 76 % 1009,4 hPa 0,0 l/m 2 min 0 min 55 W/m 6,8 km/h (2 Bft) 100,00 %
09.06.2018 21:12 25,1 C 24,4 C 22,8 C 76 % 1009,5 hPa 0,0 l/m 2 min 0 min 53 W/m 2,3 km/h (1 Bft) 97,87 %
09.06.2018 21:14 25,0 C 23,9 C 22,8 C 76 % 1009,5 hPa 0,0 l/m 2 min 0 min 49 W/m 4,5 km/h (1 Bft) 100,00 %
09.06.2018 21:16 25,0 C 23,9 C 22,8 C 77 % 1009,5 hPa 0,0 l/m 2 min 0 min 45 W/m 4,5 km/h (1 Bft) 100,00 %
09.06.2018 21:18 25,0 C 23,9 C 22,8 C 76 % 1009,5 hPa 0,0 l/m 2 min 0 min 40 W/m 2,3 km/h (1 Bft) 100,00 %
09.06.2018 21:20 24,9 C 23,9 C 22,8 C 76 % 1009,5 hPa 0,0 l/m 2 min 0 min 35 W/m 0,0 km/h (0 Bft) 100,00 %
09.06.2018 21:22 24,9 C 23,9 C 22,8 C 76 % 1009,4 hPa 0,0 l/m 2 min 0 min 31 W/m 2,3 km/h (1 Bft) 100,00 %
09.06.2018 21:24 24,9 C 23,9 C 22,8 C 77 % 1009,5 hPa 0,0 l/m 2 min 0 min 29 W/m 4,5 km/h (1 Bft) 100,00 %
09.06.2018 21:26 24,9 C 23,9 C 22,8 C 76 % 1009,4 hPa 0,0 l/m 2 min 0 min 27 W/m 4,5 km/h (1 Bft) 97,92 %
09.06.2018 21:28 24,9 C 23,9 C 22,8 C 77 % 1009,4 hPa 0,0 l/m 2 min 0 min 26 W/m 4,5 km/h (1 Bft) 100,00 %
09.06.2018 21:30 24,8 C 23,9 C 22,2 C 77 % 1009,5 hPa 0,0 l/m 2 min 0 min 26 W/m 4,5 km/h (1 Bft) 100,00 %
09.06.2018 21:32 24,8 C 23,3 C 22,8 C 77 % 1009,5 hPa 0,0 l/m 2 min 0 min 22 W/m 4,5 km/h (1 Bft) 100,00 %
09.06.2018 21:34 24,8 C 23,3 C 22,2 C 77 % 1009,5 hPa 0,0 l/m 0 min 0 min 19 W/m 4,5 km/h (1 Bft) 100,00 %
09.06.2018 21:36 24,7 C 23,3 C 22,2 C 77 % 1009,6 hPa 0,0 l/m 0 min 0 min 19 W/m 0,0 km/h (0 Bft) 100,00 %
09.06.2018 21:38 24,7 C 23,3 C 22,2 C 77 % 1009,5 hPa 0,0 l/m 0 min 0 min 19 W/m 4,5 km/h (1 Bft) 100,00 %
09.06.2018 21:40 24,7 C 23,3 C 22,2 C 77 % 1009,6 hPa 0,0 l/m 0 min 0 min 18 W/m 0,0 km/h (0 Bft) 95,74 %
09.06.2018 21:42 24,6 C 23,3 C 22,2 C 77 % 1009,6 hPa 0,0 l/m 0 min 0 min 17 W/m 0,0 km/h (0 Bft) 97,87 %
09.06.2018 21:44 24,6 C 23,3 C 22,2 C 78 % 1009,7 hPa 0,0 l/m 0 min 0 min 16 W/m 0,0 km/h (0 Bft) 98,15 %
09.06.2018 21:46 24,6 C 23,3 C 22,2 C 78 % 1009,7 hPa 0,0 l/m 0 min 0 min 14 W/m 0,0 km/h (0 Bft) 97,87 %
09.06.2018 21:48 24,6 C 23,3 C 22,2 C 79 % 1009,7 hPa 0,0 l/m 0 min 0 min 12 W/m 2,3 km/h (1 Bft) 97,87 %
09.06.2018 21:50 24,5 C 23,3 C 22,2 C 79 % 1009,7 hPa 0,0 l/m 0 min 0 min 10 W/m 0,0 km/h (0 Bft) 97,87 %
09.06.2018 21:52 24,5 C 23,3 C 22,2 C 79 % 1009,9 hPa 0,0 l/m 0 min 0 min 8 W/m 0,0 km/h (0 Bft) 97,87 %
09.06.2018 21:54 24,4 C 23,3 C 22,2 C 80 % 1009,9 hPa 0,0 l/m 0 min 0 min 6 W/m 2,3 km/h (1 Bft) 97,83 %
09.06.2018 21:56 24,4 C 22,8 C 22,2 C 80 % 1010,0 hPa 0,0 l/m 0 min 0 min 1 W/m 0,0 km/h (0 Bft) 97,87 %
09.06.2018 21:58 24,3 C 22,8 C 21,7 C 80 % 1009,9 hPa 0,0 l/m 0 min 0 min 0 W/m 0,0 km/h (0 Bft) 97,87 %
09.06.2018 22:00 24,3 C 22,8 C 21,7 C 80 % 1009,9 hPa 0,0 l/m 0 min 0 min 0 W/m 0,0 km/h (0 Bft) 97,87 %
09.06.2018 22:02 24,2 C 22,8 C 21,7 C 80 % 1009,9 hPa 0,0 l/m 0 min 0 min 0 W/m 0,0 km/h (0 Bft) 97,96 %
09.06.2018 22:04 24,2 C 22,8 C 21,7 C 80 % 1009,9 hPa 0,0 l/m 0 min 0 min 0 W/m 0,0 km/h (0 Bft) 97,83 %
09.06.2018 22:06 24,2 C 22,8 C 21,7 C 80 % 1010,0 hPa 0,0 l/m 0 min 0 min 0 W/m 0,0 km/h (0 Bft) 97,30 %
09.06.2018 22:08 24,1 C 22,8 C 21,7 C 80 % 1009,9 hPa 0,0 l/m 0 min 0 min 0 W/m 0,0 km/h (0 Bft) 97,83 %
09.06.2018 22:10 24,1 C 22,8 C 21,7 C 80 % 1009,9 hPa 0,0 l/m 0 min 0 min 0 W/m 0,0 km/h (0 Bft) 97,87 %
09.06.2018 22:12 24,0 C 22,8 C 21,7 C 81 % 1009,9 hPa 0,0 l/m 0 min 0 min 0 W/m 0,0 km/h (0 Bft) 95,74 %
09.06.2018 22:14 24,0 C 22,2 C 21,1 C 81 % 1009,9 hPa 0,0 l/m 0 min 0 min 0 W/m 0,0 km/h (0 Bft) 97,87 %
09.06.2018 22:16 23,9 C 22,2 C 21,1 C 81 % 1010,0 hPa 0,0 l/m 0 min 0 min 0 W/m 0,0 km/h (0 Bft) 97,87 %
09.06.2018 22:18 23,9 C 22,2 C 21,1 C 81 % 1010,1 hPa 0,0 l/m 0 min 0 min 0 W/m 0,0 km/h (0 Bft) 97,87 %
09.06.2018 22:20 23,9 C 22,2 C 21,1 C 81 % 1010,0 hPa 0,0 l/m 0 min 0 min 0 W/m 0,0 km/h (0 Bft) 94,83 %
09.06.2018 22:22 23,8 C 22,2 C 21,1 C 81 % 1010,1 hPa 0,0 l/m 0 min 0 min 0 W/m 0,0 km/h (0 Bft) 97,87 %
09.06.2018 22:24 23,8 C 22,2 C 21,1 C 82 % 1010,0 hPa 0,0 l/m 0 min 0 min 0 W/m 0,0 km/h (0 Bft) 100,00 %
09.06.2018 22:26 23,8 C 22,2 C 21,1 C 82 % 1010,1 hPa 0,0 l/m 0 min 0 min 0 W/m 0,0 km/h (0 Bft) 97,87 %
09.06.2018 22:28 23,7 C 22,2 C 21,1 C 82 % 1010,1 hPa 0,0 l/m 0 min 0 min 0 W/m 0,0 km/h (0 Bft) 95,74 %
09.06.2018 22:30 23,7 C 22,2 C 21,1 C 82 % 1010,1 hPa 0,0 l/m 0 min 0 min 0 W/m 2,3 km/h (1 Bft) 93,62 %
09.06.2018 22:32 23,7 C 22,2 C 21,1 C 82 % 1010,2 hPa 0,0 l/m 0 min 0 min 0 W/m 0,0 km/h (0 Bft) 97,83 %
09.06.2018 22:34 23,6 C 22,2 C 21,1 C 82 % 1010,3 hPa 0,0 l/m 0 min 0 min 0 W/m 2,3 km/h (1 Bft) 97,87 %
09.06.2018 22:36 23,6 C 22,2 C 21,1 C 82 % 1010,2 hPa 0,0 l/m 0 min 0 min 0 W/m 0,0 km/h (0 Bft) 100,00 %
09.06.2018 22:38 23,6 C 22,2 C 21,1 C 82 % 1010,1 hPa 0,0 l/m 0 min 0 min 0 W/m 0,0 km/h (0 Bft) 95,74 %
09.06.2018 22:40 23,6 C 22,2 C 21,1 C 82 % 1010,1 hPa 0,0 l/m 0 min 0 min 0 W/m 0,0 km/h (0 Bft) 100,00 %
09.06.2018 22:42 23,5 C 22,2 C 21,7 C 83 % 1010,1 hPa 0,0 l/m 0 min 0 min 0 W/m 0,0 km/h (0 Bft) 97,83 %
09.06.2018 22:44 23,5 C 22,2 C 21,7 C 83 % 1010,1 hPa 0,0 l/m 0 min 0 min 0 W/m 0,0 km/h (0 Bft) 95,74 %
09.06.2018 22:46 23,5 C 22,2 C 21,7 C 83 % 1010,2 hPa 0,0 l/m 0 min 0 min 0 W/m 0,0 km/h (0 Bft) 97,87 %
09.06.2018 22:48 23,4 C 22,8 C 21,7 C 83 % 1010,3 hPa 0,0 l/m 0 min 0 min 0 W/m 0,0 km/h (0 Bft) 97,87 %
09.06.2018 22:50 23,4 C 22,2 C 21,7 C 84 % 1010,2 hPa 0,0 l/m 0 min 0 min 0 W/m 2,3 km/h (1 Bft) 98,31 %
09.06.2018 22:52 23,4 C 22,2 C 21,7 C 84 % 1010,1 hPa 0,0 l/m 0 min 0 min 0 W/m 2,3 km/h (1 Bft) 97,22 %
09.06.2018 22:54 23,4 C 22,2 C 21,7 C 84 % 1010,1 hPa 0,0 l/m 0 min 0 min 0 W/m 0,0 km/h (0 Bft) 95,65 %
09.06.2018 22:56 23,3 C 22,2 C 21,7 C 84 % 1010,0 hPa 0,0 l/m 0 min 0 min 0 W/m 2,3 km/h (1 Bft) 97,87 %
09.06.2018 22:58 23,3 C 22,2 C 21,7 C 84 % 1010,1 hPa 0,0 l/m 0 min 0 min 0 W/m 2,3 km/h (1 Bft) 95,74 %
09.06.2018 23:00 23,3 C 22,2 C 21,7 C 84 % 1010,1 hPa 0,0 l/m 0 min 0 min 0 W/m 2,3 km/h (1 Bft) 95,74 %
09.06.2018 23:02 23,3 C 22,2 C 21,7 C 84 % 1010,0 hPa 0,0 l/m 0 min 0 min 0 W/m 4,5 km/h (1 Bft) 95,74 %
09.06.2018 23:04 23,2 C 22,2 C 21,7 C 84 % 1010,1 hPa 0,0 l/m 0 min 0 min 0 W/m 6,8 km/h (2 Bft) 95,74 %
09.06.2018 23:06 23,2 C 22,2 C 21,1 C 84 % 1010,1 hPa 0,0 l/m 0 min 0 min 0 W/m 4,5 km/h (1 Bft) 95,74 %
09.06.2018 23:08 23,2 C 22,2 C 21,7 C 84 % 1009,9 hPa 0,0 l/m 0 min 0 min 0 W/m 2,3 km/h (1 Bft) 93,62 %
09.06.2018 23:10 23,1 C 22,2 C 21,7 C 84 % 1009,8 hPa 0,0 l/m 0 min 0 min 0 W/m 0,0 km/h (0 Bft) 95,74 %
09.06.2018 23:12 23,1 C 22,2 C 21,7 C 84 % 1009,8 hPa 0,0 l/m 0 min 0 min 0 W/m 0,0 km/h (0 Bft) 95,65 %
09.06.2018 23:14 23,1 C 22,2 C 21,7 C 84 % 1009,8 hPa 0,0 l/m 0 min 0 min 0 W/m 0,0 km/h (0 Bft) 95,74 %
09.06.2018 23:16 23,1 C 22,2 C 21,1 C 84 % 1009,7 hPa 0,0 l/m 0 min 0 min 0 W/m 2,3 km/h (1 Bft) 93,62 %
09.06.2018 23:18 23,1 C 22,2 C 21,1 C 84 % 1009,7 hPa 0,0 l/m 0 min 0 min 0 W/m 0,0 km/h (0 Bft) 95,74 %
09.06.2018 23:20 23,1 C 22,2 C 21,1 C 85 % 1009,7 hPa 0,0 l/m 0 min 0 min 0 W/m 2,3 km/h (1 Bft) 95,74 %
09.06.2018 23:22 23,0 C 22,2 C 21,1 C 85 % 1009,8 hPa 0,0 l/m 0 min 0 min 0 W/m 4,5 km/h (1 Bft) 95,74 %
09.06.2018 23:24 23,0 C 22,2 C 21,1 C 85 % 1009,8 hPa 0,0 l/m 0 min 0 min 0 W/m 2,3 km/h (1 Bft) 93,48 %
09.06.2018 23:26 22,9 C 22,2 C 21,1 C 85 % 1009,8 hPa 0,0 l/m 0 min 0 min 0 W/m 2,3 km/h (1 Bft) 93,62 %
09.06.2018 23:28 22,9 C 22,2 C 21,1 C 85 % 1009,9 hPa 0,0 l/m 0 min 0 min 0 W/m 2,3 km/h (1 Bft) 95,74 %
09.06.2018 23:30 22,9 C 22,2 C 21,1 C 85 % 1009,9 hPa 0,0 l/m 0 min 0 min 0 W/m 0,0 km/h (0 Bft) 93,62 %
09.06.2018 23:32 22,9 C 22,2 C 21,1 C 85 % 1009,9 hPa 0,0 l/m 0 min 0 min 0 W/m 4,5 km/h (1 Bft) 97,87 %
09.06.2018 23:34 22,9 C 22,2 C 21,1 C 85 % 1009,9 hPa 0,0 l/m 0 min 0 min 0 W/m 0,0 km/h (0 Bft) 97,87 %
09.06.2018 23:36 22,9 C 22,2 C 21,1 C 85 % 1009,9 hPa 0,0 l/m 0 min 0 min 0 W/m 4,5 km/h (1 Bft) 97,83 %
09.06.2018 23:38 22,8 C 22,2 C 21,1 C 85 % 1009,9 hPa 0,0 l/m 0 min 0 min 0 W/m 0,0 km/h (0 Bft) 97,87 %
09.06.2018 23:40 22,8 C 21,1 C 21,1 C 85 % 1009,9 hPa 0,0 l/m 0 min 2 min 0 W/m 0,0 km/h (0 Bft) 95,74 %
09.06.2018 23:42 22,8 C 20,0 C 20,0 C 85 % 1009,9 hPa 0,2 l/m 0 min 2 min 0 W/m 2,3 km/h (1 Bft) 97,87 %
09.06.2018 23:44 22,8 C 19,4 C 19,4 C 86 % 1009,8 hPa 0,2 l/m 0 min 2 min 0 W/m 2,3 km/h (1 Bft) 97,87 %
09.06.2018 23:46 22,8 C 19,4 C 19,4 C 86 % 1009,9 hPa 0,2 l/m 0 min 2 min 0 W/m 4,5 km/h (1 Bft) 100,00 %
09.06.2018 23:48 22,8 C 19,4 C 19,4 C 86 % 1010,0 hPa 0,0 l/m 0 min 2 min 0 W/m 2,3 km/h (1 Bft) 100,00 %
09.06.2018 23:50 22,7 C 19,4 C 18,9 C 86 % 1009,9 hPa 0,0 l/m 0 min 2 min 0 W/m 0,0 km/h (0 Bft) 100,00 %
09.06.2018 23:52 22,7 C 19,4 C 18,9 C 87 % 1009,9 hPa 0,0 l/m 0 min 2 min 0 W/m 4,5 km/h (1 Bft) 100,00 %
09.06.2018 23:54 22,6 C 19,4 C 18,9 C 87 % 1009,9 hPa 0,0 l/m 0 min 2 min 0 W/m 4,5 km/h (1 Bft) 97,87 %
09.06.2018 23:56 22,5 C 19,4 C 18,9 C 87 % 1009,9 hPa 0,0 l/m 0 min 0 min 0 W/m 4,5 km/h (1 Bft) 100,00 %
09.06.2018 23:58 22,4 C 19,4 C 18,9 C 87 % 1009,9 hPa 0,0 l/m 0 min 0 min 0 W/m 2,3 km/h (1 Bft) 100,00 %
_ Min-Zeit 23:58 23:44 23:50 16:10 18:05 - - - - 14:28 23:24
Minimum _ 22,4 C 19,4 C 18,9 C 67 % 1009,2 hPa - - - - 0,0 km/h (0 Bft) 93,48 %
_ Max-Zeit 17:10 15:55 16:50 23:52 13:50 23:42 15:00 23:40 15:10 16:55 13:50
Maximum _ 27,7 C 30,6 C 25,6 C 87 % 1010,7 hPa 0,2 l/m 5 min 2 min 809 W/m 15,8 km/h
NW (3 Bft)
100,00 %
Durchschnitt _ 25,6 C 26,2 C 23,6 C 74 % 1009,9 hPa #0,6 l/m #5:35 h #16 min. 327 W/m 7,0 km/h (2 Bft) 98,79 %
© 2018 W. Hausmann